sat.trackr.live / text

‹ back to catalog

STARLINK-32345

NORAD 60920 · 2024-154T

PAYLOAD ACTIVE UNKNOWN

§ Identity

Operator
Country
US
Launch date
2024-08-31
Launch site
AFETR
Launch vehicle
Mass (kg)
RCS (m²)

Purposes: comms

External: N2YO · Heavens-Above · Gunter

§ Orbital elements

Epoch: 2026-05-25T03:01:29.659872Z

Period
94.11 min
Inclination
53.1618°
Eccentricity
0.0001270
Mean motion
15.30192471 rev/d
Perigee alt
474.4 km
Apogee alt
476.1 km
Semi-major
6,853.4 km
B*
1.0997e-5
RAAN
289.0896°
Arg perigee
98.7592°
Mean anomaly
261.3552°
Rev number
9,804

§ Raw data

STARLINK-323451 60920U 24154T   26145.12603773 -.00000034  00000+0  10997-4 0  99972 60920  53.1618 289.0896 0001270  98.7592 261.3552 15.30192471 98043

JSON: /api/v1/satellites/60920 · /tle

For live sub-satellite position, see the globe view (requires WebGL).

§ Visibility from observer

Set your observer location to see the next 7 days of passes ≥ 10°. The values pass through the URL so the page stays shareable.

No JS? Fill the form by hand. The geolocation button needs JavaScript.